Year,Month,Day,Hour,Minute,Value (Times are PST for temperature in C)
2018,10,22,00,00,6.80
2018,10,22,00,01,6.80
2018,10,22,00,02,6.80
2018,10,22,00,03,6.80
2018,10,22,00,04,6.80
2018,10,22,00,05,6.70
2018,10,22,00,06,6.70
2018,10,22,00,07,6.70
2018,10,22,00,08,6.70
2018,10,22,00,09,6.70
2018,10,22,00,10,6.70
2018,10,22,00,11,6.70
2018,10,22,00,12,6.70
2018,10,22,00,13,6.70
2018,10,22,00,14,6.70
2018,10,22,00,15,6.70
2018,10,22,00,16,6.70
2018,10,22,00,17,6.80
2018,10,22,00,18,6.80
2018,10,22,00,19,6.80
2018,10,22,00,20,6.80
2018,10,22,00,21,6.80
2018,10,22,00,22,6.80
2018,10,22,00,23,6.80
2018,10,22,00,24,6.80
2018,10,22,00,25,6.80
2018,10,22,00,26,6.80
2018,10,22,00,27,6.80
2018,10,22,00,28,6.80
2018,10,22,00,29,6.70
2018,10,22,00,30,6.70
2018,10,22,00,31,6.70
2018,10,22,00,32,6.70
2018,10,22,00,33,6.60
2018,10,22,00,34,6.60
2018,10,22,00,35,6.60
2018,10,22,00,36,6.60
2018,10,22,00,37,6.50
2018,10,22,00,38,6.50
2018,10,22,00,39,6.50
2018,10,22,00,40,6.50
2018,10,22,00,41,6.50
2018,10,22,00,42,6.50
2018,10,22,00,43,6.50
2018,10,22,00,44,6.60
2018,10,22,00,45,6.60
2018,10,22,00,46,6.60
2018,10,22,00,47,6.60
2018,10,22,00,48,6.70
2018,10,22,00,49,6.70
2018,10,22,00,50,6.70
2018,10,22,00,51,6.80
2018,10,22,00,52,6.80
2018,10,22,00,53,6.80
2018,10,22,00,54,6.80
2018,10,22,00,55,6.90
2018,10,22,00,56,6.90
2018,10,22,00,57,7.00
2018,10,22,00,58,7.00
2018,10,22,00,59,7.10
2018,10,22,01,00,7.10
2018,10,22,01,01,7.20
2018,10,22,01,02,7.20
2018,10,22,01,03,7.20
2018,10,22,01,04,7.20
2018,10,22,01,05,7.30
2018,10,22,01,06,7.30
2018,10,22,01,07,7.30
2018,10,22,01,08,7.30
2018,10,22,01,09,7.30
2018,10,22,01,10,7.30
2018,10,22,01,11,7.30
2018,10,22,01,12,7.30
2018,10,22,01,13,7.30
2018,10,22,01,14,7.30
2018,10,22,01,15,7.30
2018,10,22,01,16,7.30
2018,10,22,01,17,7.20
2018,10,22,01,18,7.20
2018,10,22,01,19,7.20
2018,10,22,01,20,7.20
2018,10,22,01,21,7.20
2018,10,22,01,22,7.10
2018,10,22,01,23,7.10
2018,10,22,01,24,7.10
2018,10,22,01,25,7.10
2018,10,22,01,26,7.00
2018,10,22,01,27,7.00
2018,10,22,01,28,7.00
2018,10,22,01,29,6.90
2018,10,22,01,30,6.90
2018,10,22,01,31,6.90
2018,10,22,01,32,6.80
2018,10,22,01,33,6.80
2018,10,22,01,34,6.80
2018,10,22,01,35,6.80
2018,10,22,01,36,6.80
2018,10,22,01,37,6.70
2018,10,22,01,38,6.70
2018,10,22,01,39,6.70
2018,10,22,01,40,6.70
2018,10,22,01,41,6.70
2018,10,22,01,42,6.70
2018,10,22,01,43,6.70
2018,10,22,01,44,6.60
2018,10,22,01,45,6.60
2018,10,22,01,46,6.60
2018,10,22,01,47,6.70
2018,10,22,01,48,6.70
2018,10,22,01,49,6.70
2018,10,22,01,50,6.80
2018,10,22,01,51,6.80
2018,10,22,01,52,6.90
2018,10,22,01,53,6.90
2018,10,22,01,54,7.00
2018,10,22,01,55,7.00
2018,10,22,01,56,7.00
2018,10,22,01,57,7.00
2018,10,22,01,58,7.10
2018,10,22,01,59,7.10
2018,10,22,02,00,7.10
2018,10,22,02,01,7.00
2018,10,22,02,02,7.00
2018,10,22,02,03,7.00
2018,10,22,02,04,7.00
2018,10,22,02,05,7.00
2018,10,22,02,06,7.00
2018,10,22,02,07,7.00
2018,10,22,02,08,7.00
2018,10,22,02,09,7.10
2018,10,22,02,10,7.10
2018,10,22,02,11,7.10
2018,10,22,02,12,7.10
2018,10,22,02,13,7.10
2018,10,22,02,14,7.10
2018,10,22,02,15,7.20
2018,10,22,02,16,7.20
2018,10,22,02,17,7.20
2018,10,22,02,18,7.20
2018,10,22,02,19,7.20
2018,10,22,02,20,7.10
2018,10,22,02,21,7.10
2018,10,22,02,22,7.10
2018,10,22,02,23,7.10
2018,10,22,02,24,7.10
2018,10,22,02,25,7.10
2018,10,22,02,26,7.10
2018,10,22,02,27,7.10
2018,10,22,02,28,7.20
2018,10,22,02,29,7.20
2018,10,22,02,30,7.20
2018,10,22,02,31,7.20
2018,10,22,02,32,7.30
2018,10,22,02,33,7.30
2018,10,22,02,34,7.30
2018,10,22,02,35,7.30
2018,10,22,02,36,7.30
2018,10,22,02,37,7.30
2018,10,22,02,38,7.30
2018,10,22,02,39,7.30
2018,10,22,02,40,7.30
2018,10,22,02,41,7.30
2018,10,22,02,42,7.20
2018,10,22,02,43,7.20
2018,10,22,02,44,7.20
2018,10,22,02,45,7.20
2018,10,22,02,46,7.20
2018,10,22,02,47,7.20
2018,10,22,02,48,7.30
2018,10,22,02,49,7.30
2018,10,22,02,50,7.30
2018,10,22,02,51,7.30
2018,10,22,02,52,7.30
2018,10,22,02,53,7.30
2018,10,22,02,54,7.30
2018,10,22,02,55,7.40
2018,10,22,02,56,7.40
2018,10,22,02,57,7.40
2018,10,22,02,58,7.40
2018,10,22,02,59,7.40
2018,10,22,03,00,7.40
2018,10,22,03,01,7.40
2018,10,22,03,02,7.40
2018,10,22,03,03,7.40
2018,10,22,03,04,7.40
2018,10,22,03,05,7.40
2018,10,22,03,06,7.30
2018,10,22,03,07,7.30
2018,10,22,03,08,7.20
2018,10,22,03,09,7.20
2018,10,22,03,10,7.10
2018,10,22,03,11,7.00
2018,10,22,03,12,6.90
2018,10,22,03,13,6.80
2018,10,22,03,14,6.80
2018,10,22,03,15,6.70
2018,10,22,03,16,6.70
2018,10,22,03,17,6.70
2018,10,22,03,18,6.70
2018,10,22,03,19,6.70
2018,10,22,03,20,6.60
2018,10,22,03,21,6.60
2018,10,22,03,22,6.60
2018,10,22,03,23,6.60
2018,10,22,03,24,6.60
2018,10,22,03,25,6.60
2018,10,22,03,26,6.60
2018,10,22,03,27,6.60
2018,10,22,03,28,6.60
2018,10,22,03,29,6.60
2018,10,22,03,30,6.60
2018,10,22,03,31,6.60
2018,10,22,03,32,6.60
2018,10,22,03,33,6.60
2018,10,22,03,34,6.60
2018,10,22,03,35,6.50
2018,10,22,03,36,6.50
2018,10,22,03,37,6.50
2018,10,22,03,38,6.50
2018,10,22,03,39,6.50
2018,10,22,03,40,6.50
2018,10,22,03,41,6.50
2018,10,22,03,42,6.50
2018,10,22,03,43,6.50
2018,10,22,03,44,6.50
2018,10,22,03,45,6.60
2018,10,22,03,46,6.60
2018,10,22,03,47,6.60
2018,10,22,03,48,6.70
2018,10,22,03,49,6.70
2018,10,22,03,50,6.80
2018,10,22,03,51,6.80
2018,10,22,03,52,6.80
2018,10,22,03,53,6.90
2018,10,22,03,54,7.00
2018,10,22,03,55,7.10
2018,10,22,03,56,7.10
2018,10,22,03,57,7.20
2018,10,22,03,58,7.20
2018,10,22,03,59,7.30
2018,10,22,04,00,7.30
2018,10,22,04,01,7.30
2018,10,22,04,02,7.30
2018,10,22,04,03,7.30
2018,10,22,04,04,7.30
2018,10,22,04,05,7.30
2018,10,22,04,06,7.30
2018,10,22,04,07,7.30
2018,10,22,04,08,7.20
2018,10,22,04,09,7.20
2018,10,22,04,10,7.20
2018,10,22,04,11,7.20
2018,10,22,04,12,7.20
2018,10,22,04,13,7.20
2018,10,22,04,14,7.20
2018,10,22,04,15,7.20
2018,10,22,04,16,7.20
2018,10,22,04,17,7.20
2018,10,22,04,18,7.20
2018,10,22,04,19,7.20
2018,10,22,04,20,7.20
2018,10,22,04,21,7.20
2018,10,22,04,22,7.20
2018,10,22,04,23,7.30
2018,10,22,04,24,7.20
2018,10,22,04,25,7.20
2018,10,22,04,26,7.20
2018,10,22,04,27,7.20
2018,10,22,04,28,7.20
2018,10,22,04,29,7.20
2018,10,22,04,30,7.20
2018,10,22,04,31,7.20
2018,10,22,04,32,7.20
2018,10,22,04,33,7.20
2018,10,22,04,34,7.20
2018,10,22,04,35,7.20
2018,10,22,04,36,7.20
2018,10,22,04,37,7.20
2018,10,22,04,38,7.20
2018,10,22,04,39,7.20
2018,10,22,04,40,7.10
2018,10,22,04,41,7.10
2018,10,22,04,42,7.10
2018,10,22,04,43,7.10
2018,10,22,04,44,7.10
2018,10,22,04,45,7.10
2018,10,22,04,46,7.10
2018,10,22,04,47,7.00
2018,10,22,04,48,7.00
2018,10,22,04,49,7.00
2018,10,22,04,50,7.00
2018,10,22,04,51,6.90
2018,10,22,04,52,6.90
2018,10,22,04,53,6.90
2018,10,22,04,54,6.90
2018,10,22,04,55,6.90
2018,10,22,04,56,6.80
2018,10,22,04,57,6.80
2018,10,22,04,58,6.80
2018,10,22,04,59,6.70
2018,10,22,05,00,6.70
2018,10,22,05,01,6.70
2018,10,22,05,02,6.70
2018,10,22,05,03,6.60
2018,10,22,05,04,6.60
2018,10,22,05,05,6.60
2018,10,22,05,06,6.60
2018,10,22,05,07,6.50
2018,10,22,05,08,6.50
2018,10,22,05,09,6.50
2018,10,22,05,10,6.40
2018,10,22,05,11,6.40
2018,10,22,05,12,6.30
2018,10,22,05,13,6.30
2018,10,22,05,14,6.30
2018,10,22,05,15,6.20
2018,10,22,05,16,6.20
2018,10,22,05,17,6.20
2018,10,22,05,18,6.20
2018,10,22,05,19,6.10
2018,10,22,05,20,6.10
2018,10,22,05,21,6.10
2018,10,22,05,22,6.10
2018,10,22,05,23,6.10
2018,10,22,05,24,6.10
2018,10,22,05,25,6.10
2018,10,22,05,26,6.10
2018,10,22,05,27,6.10
2018,10,22,05,28,6.10
2018,10,22,05,29,6.20
2018,10,22,05,30,6.20
2018,10,22,05,31,6.20
2018,10,22,05,32,6.30
2018,10,22,05,33,6.30
2018,10,22,05,34,6.40
2018,10,22,05,35,6.40
2018,10,22,05,36,6.40
2018,10,22,05,37,6.50
2018,10,22,05,38,6.50
2018,10,22,05,39,6.50
2018,10,22,05,40,6.50
2018,10,22,05,41,6.50
2018,10,22,05,42,6.50
2018,10,22,05,43,6.50
2018,10,22,05,44,6.50
2018,10,22,05,45,6.40
2018,10,22,05,46,6.40
2018,10,22,05,47,6.40
2018,10,22,05,48,6.40
2018,10,22,05,49,6.40
2018,10,22,05,50,6.40
2018,10,22,05,51,6.40
2018,10,22,05,52,6.40
2018,10,22,05,53,6.40
2018,10,22,05,54,6.40
2018,10,22,05,55,6.30
2018,10,22,05,56,6.40
2018,10,22,05,57,6.40
2018,10,22,05,58,6.40
2018,10,22,05,59,6.40
2018,10,22,06,00,6.40
2018,10,22,06,01,6.40
2018,10,22,06,02,6.40
2018,10,22,06,03,6.40
2018,10,22,06,04,6.40
2018,10,22,06,05,6.40
2018,10,22,06,06,6.40
2018,10,22,06,07,6.40
2018,10,22,06,08,6.40
2018,10,22,06,09,6.40
2018,10,22,06,10,6.40
2018,10,22,06,11,6.50
2018,10,22,06,12,6.50
2018,10,22,06,13,6.50
2018,10,22,06,14,6.60
2018,10,22,06,15,6.60
2018,10,22,06,16,6.60
2018,10,22,06,17,6.70
2018,10,22,06,18,6.70
2018,10,22,06,19,6.70
2018,10,22,06,20,6.70
2018,10,22,06,21,6.70
2018,10,22,06,22,6.80
2018,10,22,06,23,6.80
2018,10,22,06,24,6.80
2018,10,22,06,25,6.80
2018,10,22,06,26,6.80
2018,10,22,06,27,6.80
2018,10,22,06,28,6.80
2018,10,22,06,29,6.70
2018,10,22,06,30,6.70
2018,10,22,06,31,6.70
2018,10,22,06,32,6.70
2018,10,22,06,33,6.70
2018,10,22,06,34,6.70
2018,10,22,06,35,6.70
2018,10,22,06,36,6.60
2018,10,22,06,37,6.60
2018,10,22,06,38,6.60
2018,10,22,06,39,6.60
2018,10,22,06,40,6.60
2018,10,22,06,41,6.60
2018,10,22,06,42,6.60
2018,10,22,06,43,6.60
2018,10,22,06,44,6.60
2018,10,22,06,45,6.60
2018,10,22,06,46,6.60
2018,10,22,06,47,6.60
2018,10,22,06,48,6.60
2018,10,22,06,49,6.60
2018,10,22,06,50,6.60
2018,10,22,06,51,6.50
2018,10,22,06,52,6.40
2018,10,22,06,53,6.40
2018,10,22,06,54,6.30
2018,10,22,06,55,6.30
2018,10,22,06,56,6.20
2018,10,22,06,57,6.20
2018,10,22,06,58,6.20
2018,10,22,06,59,6.20
2018,10,22,07,00,6.20
2018,10,22,07,01,6.20
2018,10,22,07,02,6.20
2018,10,22,07,03,6.20
2018,10,22,07,04,6.10
2018,10,22,07,05,6.10
2018,10,22,07,06,6.10
2018,10,22,07,07,6.10
2018,10,22,07,08,6.10
2018,10,22,07,09,6.00
2018,10,22,07,10,6.00
2018,10,22,07,11,5.90
2018,10,22,07,12,5.90
2018,10,22,07,13,5.80
2018,10,22,07,14,5.80
2018,10,22,07,15,5.80
2018,10,22,07,16,5.70
2018,10,22,07,17,5.70
2018,10,22,07,18,5.70
2018,10,22,07,19,5.70
2018,10,22,07,20,5.60
2018,10,22,07,21,5.70
2018,10,22,07,22,5.70
2018,10,22,07,23,5.70
2018,10,22,07,24,5.70
2018,10,22,07,25,5.70
2018,10,22,07,26,5.80
2018,10,22,07,27,5.80
2018,10,22,07,28,5.80
2018,10,22,07,29,5.80
2018,10,22,07,30,5.80
2018,10,22,07,31,5.80
2018,10,22,07,32,5.80
2018,10,22,07,33,5.80
2018,10,22,07,34,5.80
2018,10,22,07,35,5.80
2018,10,22,07,36,5.80
2018,10,22,07,37,5.80
2018,10,22,07,38,5.90
2018,10,22,07,39,5.90
2018,10,22,07,40,5.90
2018,10,22,07,41,5.90
2018,10,22,07,42,5.80
2018,10,22,07,43,5.80
2018,10,22,07,44,5.80
2018,10,22,07,45,5.80
2018,10,22,07,46,5.80
2018,10,22,07,47,5.80
2018,10,22,07,48,5.70
2018,10,22,07,49,5.70
2018,10,22,07,50,5.70
2018,10,22,07,51,5.70
2018,10,22,07,52,5.70
2018,10,22,07,53,5.70
2018,10,22,07,54,5.60
2018,10,22,07,55,5.60
2018,10,22,07,56,5.60
2018,10,22,07,57,5.60
2018,10,22,07,58,5.60
2018,10,22,07,59,5.60
2018,10,22,08,00,5.60
2018,10,22,08,01,5.60
2018,10,22,08,02,5.60
2018,10,22,08,03,5.60
2018,10,22,08,04,5.70
2018,10,22,08,05,5.70
2018,10,22,08,06,5.70
2018,10,22,08,07,5.80
2018,10,22,08,08,5.80
2018,10,22,08,09,5.90
2018,10,22,08,10,5.90
2018,10,22,08,11,5.90
2018,10,22,08,12,5.90
2018,10,22,08,13,5.90
2018,10,22,08,14,5.90
2018,10,22,08,15,5.90
2018,10,22,08,16,6.00
2018,10,22,08,17,5.90
2018,10,22,08,18,5.90
2018,10,22,08,19,5.90
2018,10,22,08,20,5.90
2018,10,22,08,21,5.90
2018,10,22,08,22,5.90
2018,10,22,08,23,5.80
2018,10,22,08,24,5.80
2018,10,22,08,25,5.70
2018,10,22,08,26,5.70
2018,10,22,08,27,5.70
2018,10,22,08,28,5.60
2018,10,22,08,29,5.60
2018,10,22,08,30,5.60
2018,10,22,08,31,5.60
2018,10,22,08,32,5.60
2018,10,22,08,33,5.50
2018,10,22,08,34,5.50
2018,10,22,08,35,5.50
2018,10,22,08,36,5.50
2018,10,22,08,37,5.40
2018,10,22,08,38,5.40
2018,10,22,08,39,5.40
2018,10,22,08,40,5.40
2018,10,22,08,41,5.40
2018,10,22,08,42,5.40
2018,10,22,08,43,5.40
2018,10,22,08,44,5.40
2018,10,22,08,45,5.40
2018,10,22,08,46,5.40
2018,10,22,08,47,5.50
2018,10,22,08,48,5.60
2018,10,22,08,49,5.70
2018,10,22,08,50,5.80
2018,10,22,08,51,5.90
2018,10,22,08,52,6.00
2018,10,22,08,53,6.10
2018,10,22,08,54,6.10
2018,10,22,08,55,6.20
2018,10,22,08,56,6.20
2018,10,22,08,57,6.30
2018,10,22,08,58,6.50
2018,10,22,08,59,6.60
2018,10,22,09,00,6.70
2018,10,22,09,01,6.70
2018,10,22,09,02,6.80
2018,10,22,09,03,6.80
2018,10,22,09,04,6.80
2018,10,22,09,05,6.80
2018,10,22,09,06,6.80
2018,10,22,09,07,6.70
2018,10,22,09,08,6.70
2018,10,22,09,09,6.70
2018,10,22,09,10,6.80
2018,10,22,09,11,6.80
2018,10,22,09,12,6.90
2018,10,22,09,13,6.90
2018,10,22,09,14,7.00
2018,10,22,09,15,7.00
2018,10,22,09,16,7.00
2018,10,22,09,17,7.00
2018,10,22,09,18,7.00
2018,10,22,09,19,7.10
2018,10,22,09,20,7.10
2018,10,22,09,21,7.10
2018,10,22,09,22,7.10
2018,10,22,09,23,7.10
2018,10,22,09,24,7.20
2018,10,22,09,25,7.20
2018,10,22,09,26,7.20
2018,10,22,09,27,7.20
2018,10,22,09,28,7.30
2018,10,22,09,29,7.30
2018,10,22,09,30,7.40
2018,10,22,09,31,7.40
2018,10,22,09,32,7.50
2018,10,22,09,33,7.50
2018,10,22,09,34,7.60
2018,10,22,09,35,7.70
2018,10,22,09,36,7.80
2018,10,22,09,37,7.80
2018,10,22,09,38,7.90
2018,10,22,09,39,7.90
2018,10,22,09,40,8.00
2018,10,22,09,41,8.00
2018,10,22,09,42,8.10
2018,10,22,09,43,8.20
2018,10,22,09,44,8.30
2018,10,22,09,45,8.40
2018,10,22,09,46,8.50
2018,10,22,09,47,8.60
2018,10,22,09,48,8.70
2018,10,22,09,49,8.70
2018,10,22,09,50,8.80
2018,10,22,09,51,8.80
2018,10,22,09,52,8.80
2018,10,22,09,53,8.90
2018,10,22,09,54,8.90
2018,10,22,09,55,9.00
2018,10,22,09,56,9.00
2018,10,22,09,57,8.90
2018,10,22,09,58,8.90
2018,10,22,09,59,8.90
2018,10,22,10,00,8.80
2018,10,22,10,01,8.80
2018,10,22,10,02,8.70
2018,10,22,10,03,8.70
2018,10,22,10,04,8.70
2018,10,22,10,05,8.80
2018,10,22,10,06,8.80
2018,10,22,10,07,8.80
2018,10,22,10,08,8.80
2018,10,22,10,09,8.80
2018,10,22,10,10,8.90
2018,10,22,10,11,9.00
2018,10,22,10,12,9.10
2018,10,22,10,13,9.10
2018,10,22,10,14,9.20
2018,10,22,10,15,9.30
2018,10,22,10,16,9.30
2018,10,22,10,17,9.40
2018,10,22,10,18,9.40
2018,10,22,10,19,9.50
2018,10,22,10,20,9.50
2018,10,22,10,21,9.50
2018,10,22,10,22,9.50
2018,10,22,10,23,9.60
2018,10,22,10,24,9.60
2018,10,22,10,25,9.50
2018,10,22,10,26,9.50
2018,10,22,10,27,9.50
2018,10,22,10,28,9.50
2018,10,22,10,29,9.50
2018,10,22,10,30,9.50
2018,10,22,10,31,9.50
2018,10,22,10,32,9.50
2018,10,22,10,33,9.60
2018,10,22,10,34,9.70
2018,10,22,10,35,9.80
2018,10,22,10,36,9.70
2018,10,22,10,37,9.70
2018,10,22,10,38,9.60
2018,10,22,10,39,9.70
2018,10,22,10,40,9.70
2018,10,22,10,41,9.70
2018,10,22,10,42,9.70
2018,10,22,10,43,9.80
2018,10,22,10,44,9.90
2018,10,22,10,45,10.10
2018,10,22,10,46,10.20
2018,10,22,10,47,10.30
2018,10,22,10,48,10.50
2018,10,22,10,49,10.50
2018,10,22,10,50,10.60
2018,10,22,10,51,10.60
2018,10,22,10,52,10.70
2018,10,22,10,53,10.70
2018,10,22,10,54,10.60
2018,10,22,10,55,10.60
2018,10,22,10,56,10.40
2018,10,22,10,57,10.30
2018,10,22,10,58,10.30
2018,10,22,10,59,10.20
2018,10,22,11,00,10.20
2018,10,22,11,01,10.30
2018,10,22,11,02,10.30
2018,10,22,11,03,10.40
2018,10,22,11,04,10.60
2018,10,22,11,05,10.70
2018,10,22,11,06,10.80
2018,10,22,11,07,11.00
2018,10,22,11,08,11.10
2018,10,22,11,09,11.20
2018,10,22,11,10,11.30
2018,10,22,11,11,11.40
2018,10,22,11,12,11.50
2018,10,22,11,13,11.60
2018,10,22,11,14,11.70
2018,10,22,11,15,11.70
2018,10,22,11,16,11.70
2018,10,22,11,17,11.80
2018,10,22,11,18,11.80
2018,10,22,11,19,11.80
2018,10,22,11,20,11.60
2018,10,22,11,21,11.50
2018,10,22,11,22,11.50
2018,10,22,11,23,11.50
2018,10,22,11,24,11.60
2018,10,22,11,25,11.60
2018,10,22,11,26,11.60
2018,10,22,11,27,11.70
2018,10,22,11,28,11.80
2018,10,22,11,29,11.90
2018,10,22,11,30,11.90
2018,10,22,11,31,11.90
2018,10,22,11,32,12.00
2018,10,22,11,33,11.90
2018,10,22,11,34,11.80
2018,10,22,11,35,11.70
2018,10,22,11,36,11.70
2018,10,22,11,37,11.70
2018,10,22,11,38,11.70
2018,10,22,11,39,11.70
2018,10,22,11,40,11.80
2018,10,22,11,41,11.80
2018,10,22,11,42,11.80
2018,10,22,11,43,11.70
2018,10,22,11,44,11.50
2018,10,22,11,45,11.30
2018,10,22,11,46,11.10
2018,10,22,11,47,11.00
2018,10,22,11,48,10.90
2018,10,22,11,49,10.90
2018,10,22,11,50,11.00
2018,10,22,11,51,11.10
2018,10,22,11,52,11.10
2018,10,22,11,53,11.30
2018,10,22,11,54,11.40
2018,10,22,11,55,11.50
2018,10,22,11,56,11.50
2018,10,22,11,57,11.50
2018,10,22,11,58,11.40
2018,10,22,11,59,11.50
2018,10,22,12,00,11.60
2018,10,22,12,01,11.60
2018,10,22,12,02,11.60
2018,10,22,12,03,11.70
2018,10,22,12,04,11.70
2018,10,22,12,05,11.70
2018,10,22,12,06,11.70
2018,10,22,12,07,11.70
2018,10,22,12,08,11.80
2018,10,22,12,09,11.70
2018,10,22,12,10,11.70
2018,10,22,12,11,11.80
2018,10,22,12,12,11.80
2018,10,22,12,13,11.90
2018,10,22,12,14,11.90
2018,10,22,12,15,12.00
2018,10,22,12,16,12.10
2018,10,22,12,17,12.30
2018,10,22,12,18,12.40
2018,10,22,12,19,12.50
2018,10,22,12,20,12.50
2018,10,22,12,21,12.60
2018,10,22,12,22,12.70
2018,10,22,12,23,12.90
2018,10,22,12,24,12.90
2018,10,22,12,25,12.90
2018,10,22,12,26,12.90
2018,10,22,12,27,12.90
2018,10,22,12,28,12.90
2018,10,22,12,29,12.90
2018,10,22,12,30,12.90
2018,10,22,12,31,12.90
2018,10,22,12,32,12.90
2018,10,22,12,33,13.00
2018,10,22,12,34,13.10
2018,10,22,12,35,13.10
2018,10,22,12,36,13.10
2018,10,22,12,37,13.10
2018,10,22,12,38,13.10
2018,10,22,12,39,13.00
2018,10,22,12,40,13.00
2018,10,22,12,41,13.10
2018,10,22,12,42,13.20
2018,10,22,12,43,13.30
2018,10,22,12,44,13.40
2018,10,22,12,45,13.30
2018,10,22,12,46,13.10
2018,10,22,12,47,12.90
2018,10,22,12,48,12.80
2018,10,22,12,49,12.70
2018,10,22,12,50,12.70
2018,10,22,12,51,12.70
2018,10,22,12,52,12.70
2018,10,22,12,53,12.70
2018,10,22,12,54,12.60
2018,10,22,12,55,12.50
2018,10,22,12,56,12.40
2018,10,22,12,57,12.30
2018,10,22,12,58,12.30
2018,10,22,12,59,12.20
2018,10,22,13,00,12.10
2018,10,22,13,01,12.10
2018,10,22,13,02,12.20
2018,10,22,13,03,12.40
2018,10,22,13,04,12.60
2018,10,22,13,05,12.60
2018,10,22,13,06,12.70
2018,10,22,13,07,12.70
2018,10,22,13,08,12.60
2018,10,22,13,09,12.60
2018,10,22,13,10,12.60
2018,10,22,13,11,12.70
2018,10,22,13,12,12.70
2018,10,22,13,13,12.70
2018,10,22,13,14,12.80
2018,10,22,13,15,13.00
2018,10,22,13,16,13.20
2018,10,22,13,17,13.20
2018,10,22,13,18,13.10
2018,10,22,13,19,13.10
2018,10,22,13,20,13.20
2018,10,22,13,21,13.20
2018,10,22,13,22,13.20
2018,10,22,13,23,13.20
2018,10,22,13,24,13.20
2018,10,22,13,25,13.20
2018,10,22,13,26,13.30
2018,10,22,13,27,13.30
2018,10,22,13,28,13.40
2018,10,22,13,29,13.40
2018,10,22,13,30,13.30
2018,10,22,13,31,13.30
2018,10,22,13,32,13.30
2018,10,22,13,33,13.20
2018,10,22,13,34,13.30
2018,10,22,13,35,13.30
2018,10,22,13,36,13.40
2018,10,22,13,37,13.40
2018,10,22,13,38,13.40
2018,10,22,13,39,13.50
2018,10,22,13,40,13.60
2018,10,22,13,41,13.60
2018,10,22,13,42,13.40
2018,10,22,13,43,13.20
2018,10,22,13,44,13.10
2018,10,22,13,45,13.00
2018,10,22,13,46,12.90
2018,10,22,13,47,12.90
2018,10,22,13,48,13.10
2018,10,22,13,49,13.10
2018,10,22,13,50,13.20
2018,10,22,13,51,13.30
2018,10,22,13,52,13.30
2018,10,22,13,53,13.20
2018,10,22,13,54,13.10
2018,10,22,13,55,13.10
2018,10,22,13,56,13.00
2018,10,22,13,57,12.80
2018,10,22,13,58,12.70
2018,10,22,13,59,12.60
2018,10,22,14,00,12.50
2018,10,22,14,01,12.40
2018,10,22,14,02,12.40
2018,10,22,14,03,12.50
2018,10,22,14,04,12.60
2018,10,22,14,05,12.50
2018,10,22,14,06,12.50
2018,10,22,14,07,12.50
2018,10,22,14,08,12.50
2018,10,22,14,09,12.60
2018,10,22,14,10,12.60
2018,10,22,14,11,12.70
2018,10,22,14,12,12.90
2018,10,22,14,13,13.10
2018,10,22,14,14,13.10
2018,10,22,14,15,13.20
2018,10,22,14,16,13.30
2018,10,22,14,17,13.30
2018,10,22,14,18,13.30
2018,10,22,14,19,13.30
2018,10,22,14,20,13.20
2018,10,22,14,21,13.10
2018,10,22,14,22,13.00
2018,10,22,14,23,13.00
2018,10,22,14,24,13.00
2018,10,22,14,25,12.90
2018,10,22,14,26,12.90
2018,10,22,14,27,12.90
2018,10,22,14,28,12.90
2018,10,22,14,29,12.90
2018,10,22,14,30,13.00
2018,10,22,14,31,13.10
2018,10,22,14,32,13.10
2018,10,22,14,33,13.00
2018,10,22,14,34,12.90
2018,10,22,14,35,12.80
2018,10,22,14,36,12.90
2018,10,22,14,37,13.00
2018,10,22,14,38,13.00
2018,10,22,14,39,13.00
2018,10,22,14,40,13.10
2018,10,22,14,41,13.10
2018,10,22,14,42,13.10
2018,10,22,14,43,13.00
2018,10,22,14,44,12.90
2018,10,22,14,45,12.80
2018,10,22,14,46,12.80
2018,10,22,14,47,12.80
2018,10,22,14,48,12.90
2018,10,22,14,49,13.00
2018,10,22,14,50,13.00
2018,10,22,14,51,13.00
2018,10,22,14,52,13.10
2018,10,22,14,53,13.30
2018,10,22,14,54,13.50
2018,10,22,14,55,13.60
2018,10,22,14,56,13.70
2018,10,22,14,57,13.80
2018,10,22,14,58,13.90
2018,10,22,14,59,14.00
2018,10,22,15,00,13.90
2018,10,22,15,01,13.80
2018,10,22,15,02,13.80
2018,10,22,15,03,13.80
2018,10,22,15,04,13.70
2018,10,22,15,05,13.60
2018,10,22,15,06,13.50
2018,10,22,15,07,13.40
2018,10,22,15,08,13.30
2018,10,22,15,09,13.30
2018,10,22,15,10,13.20
2018,10,22,15,11,13.20
2018,10,22,15,12,13.00
2018,10,22,15,13,13.00
2018,10,22,15,14,12.90
2018,10,22,15,15,12.90
2018,10,22,15,16,13.00
2018,10,22,15,17,13.10
2018,10,22,15,18,13.20
2018,10,22,15,19,13.20
2018,10,22,15,20,13.20
2018,10,22,15,21,13.10
2018,10,22,15,22,13.10
2018,10,22,15,23,13.00
2018,10,22,15,24,12.90
2018,10,22,15,25,12.90
2018,10,22,15,26,12.90
2018,10,22,15,27,12.90
2018,10,22,15,28,12.90
2018,10,22,15,29,12.90
2018,10,22,15,30,12.90
2018,10,22,15,31,12.90
2018,10,22,15,32,12.90
2018,10,22,15,33,12.80
2018,10,22,15,34,12.80
2018,10,22,15,35,12.70
2018,10,22,15,36,12.60
2018,10,22,15,37,12.50
2018,10,22,15,38,12.50
2018,10,22,15,39,12.40
2018,10,22,15,40,12.30
2018,10,22,15,41,12.30
2018,10,22,15,42,12.40
2018,10,22,15,43,12.50
2018,10,22,15,44,12.60
2018,10,22,15,45,12.70
2018,10,22,15,46,12.80
2018,10,22,15,47,12.80
2018,10,22,15,48,12.80
2018,10,22,15,49,12.70
2018,10,22,15,50,12.50
2018,10,22,15,51,12.40
2018,10,22,15,52,12.30
2018,10,22,15,53,12.20
2018,10,22,15,54,12.10
2018,10,22,15,55,12.10
2018,10,22,15,56,12.10
2018,10,22,15,57,12.00
2018,10,22,15,58,12.00
2018,10,22,15,59,12.00
2018,10,22,16,00,12.00
2018,10,22,16,01,12.00
2018,10,22,16,02,12.10
2018,10,22,16,03,12.20
2018,10,22,16,04,12.20
2018,10,22,16,05,12.20
2018,10,22,16,06,12.10
2018,10,22,16,07,12.10
2018,10,22,16,08,12.10
2018,10,22,16,09,12.10
2018,10,22,16,10,12.00
2018,10,22,16,11,12.00
2018,10,22,16,12,12.00
2018,10,22,16,13,11.90
2018,10,22,16,14,11.90
2018,10,22,16,15,11.80
2018,10,22,16,16,11.80
2018,10,22,16,17,11.90
2018,10,22,16,18,12.00
2018,10,22,16,19,12.10
2018,10,22,16,20,12.20
2018,10,22,16,21,12.30
2018,10,22,16,22,12.30
2018,10,22,16,23,12.40
2018,10,22,16,24,12.40
2018,10,22,16,25,12.40
2018,10,22,16,26,12.40
2018,10,22,16,27,12.30
2018,10,22,16,28,12.20
2018,10,22,16,29,12.20
2018,10,22,16,30,12.20
2018,10,22,16,31,12.20
2018,10,22,16,32,12.20
2018,10,22,16,33,12.20
2018,10,22,16,34,12.10
2018,10,22,16,35,12.20
2018,10,22,16,36,12.20
2018,10,22,16,37,12.10
2018,10,22,16,38,12.10
2018,10,22,16,39,12.00
2018,10,22,16,40,11.90
2018,10,22,16,41,11.90
2018,10,22,16,42,11.80
2018,10,22,16,43,11.80
2018,10,22,16,44,11.80
2018,10,22,16,45,11.80
2018,10,22,16,46,11.90
2018,10,22,16,47,11.90
2018,10,22,16,48,12.00
2018,10,22,16,49,12.10
2018,10,22,16,50,12.10
2018,10,22,16,51,12.20
2018,10,22,16,52,12.30
2018,10,22,16,53,12.30
2018,10,22,16,54,12.30
2018,10,22,16,55,12.30
2018,10,22,16,56,12.30
2018,10,22,16,57,12.40
2018,10,22,16,58,12.40
2018,10,22,16,59,12.50
2018,10,22,17,00,12.50
2018,10,22,17,01,12.60
2018,10,22,17,02,12.60
2018,10,22,17,03,12.60
2018,10,22,17,04,12.60
2018,10,22,17,05,12.60
2018,10,22,17,06,12.60
2018,10,22,17,07,12.60
2018,10,22,17,08,12.60
2018,10,22,17,09,12.60
2018,10,22,17,10,12.60
2018,10,22,17,11,12.60
2018,10,22,17,12,12.50
2018,10,22,17,13,12.50
2018,10,22,17,14,12.50
2018,10,22,17,15,12.40
2018,10,22,17,16,12.40
2018,10,22,17,17,12.30
2018,10,22,17,18,12.30
2018,10,22,17,19,12.30
2018,10,22,17,20,12.30
2018,10,22,17,21,12.20
2018,10,22,17,22,12.20
2018,10,22,17,23,12.20
2018,10,22,17,24,12.20
2018,10,22,17,25,12.20
2018,10,22,17,26,12.20
2018,10,22,17,27,12.20
2018,10,22,17,28,12.20
2018,10,22,17,29,12.20
2018,10,22,17,30,12.10
2018,10,22,17,31,12.10
2018,10,22,17,32,12.10
2018,10,22,17,33,12.00
2018,10,22,17,34,11.90
2018,10,22,17,35,11.90
2018,10,22,17,36,11.90
2018,10,22,17,37,11.80
2018,10,22,17,38,11.80
2018,10,22,17,39,11.80
2018,10,22,17,40,11.80
2018,10,22,17,41,11.80
2018,10,22,17,42,11.80
2018,10,22,17,43,11.70
2018,10,22,17,44,11.70
2018,10,22,17,45,11.70
2018,10,22,17,46,11.60
2018,10,22,17,47,11.60